Weather History for KCOF - August, 2012

Change the Weather History Date:

Friday, August 3, 2012

  Actual Average Record
Temperature  
Mean Temperature 82 °F -  
Max Temperature 86 °F 85 °F 91 °F (2004)
Min Temperature 78 °F 74 °F 71 °F (1996)
Cooling Degree Days 16    
Growing Degree Days 32 (Base 50)    
Moisture  
Dew Point 74 °F    
Average Humidity 80    
Maximum Humidity 93    
Minimum Humidity 71    
Precipitation  
Precipitation 0.00 in - - ()
Sea Level Pressure  
Sea Level Pressure 30.02 in    
Wind  
Wind Speed 5 mph (ESE)    
Max Wind Speed 14 mph    
Max Gust Speed -    
Visibility 10 miles    
Events      
Averages and records for this station are not official NWS values.
T = Trace of Precipitation, MM = Missing Value Source: NWS Daily Summary

Daily Weather History Graph

Daily Weather History Graph

Search for Another Location

Airport or City:

Trip Planner

Search our weather history database for the weather conditions in past years. The results will help you decide how hot, cold, wet, or windy it might be!

Date:

Astronomy

Aug. 03, 2012 Rise Set
Actual Time 6:45 AM EDT 8:10 PM EDT
Civil Twilight 6:20 AM EDT 8:35 PM EDT
Nautical Twilight 5:50 AM EDT 9:06 PM EDT
Astronomical Twilight 5:19 AM EDT 9:37 PM EDT
Moon 9:05 PM EDT (8/3) 8:13 AM EDT (8/3)
Length of Visible Light 14h 15m
Length of Day
13h 24m
Full, 97% of the Moon is Illuminated
Aug 3
Full
Aug 9
Last Quarter
Aug 17
New
Aug 24
First Quarter
Aug 31
Full

Hourly Weather History & Observations

Time (EDT) Temp. Heat Index Dew Point Humidity Pressure Visibility Wind Dir Wind Speed Gust Speed Precip Events Conditions
12:55 AM 82.0 °F 87.2 °F 72.5 °F 73% 30.01 in 10.0 mi WSW 6.9 mph - N/A   Clear
1:55 AM 81.0 °F 85.6 °F 72.9 °F 76% 29.99 in 10.0 mi Calm Calm - N/A   Scattered Clouds
2:55 AM 80.4 °F 84.5 °F 72.1 °F 76% 29.98 in 10.0 mi South 4.6 mph - N/A   Scattered Clouds
3:55 AM 79.7 °F - 72.9 °F 80% 29.96 in 10.0 mi South 5.8 mph - N/A   Clear
4:55 AM 78.6 °F - 74.1 °F 86% 29.96 in 10.0 mi SSE 3.5 mph - N/A   Clear
5:55 AM 78.4 °F - 74.1 °F 87% 29.96 in 10.0 mi Calm Calm - N/A   Clear
6:55 AM 79.3 °F - 73.9 °F 83% 29.98 in 10.0 mi WNW 5.8 mph - N/A   Clear
7:55 AM 81.0 °F 86.3 °F 74.3 °F 80% 30.01 in 10.0 mi Calm Calm - N/A   Clear
8:55 AM 82.4 °F 87.9 °F 73.0 °F 73% 30.04 in 10.0 mi Calm Calm - N/A   Clear
9:55 AM 83.3 °F 91.1 °F 75.6 °F 77% 30.04 in 10.0 mi East 6.9 mph - N/A   Clear
10:55 AM 84.7 °F 93.6 °F 75.7 °F 74% 30.05 in 10.0 mi NE 6.9 mph - N/A   Clear
11:55 AM 85.5 °F 94.6 °F 75.4 °F 72% 30.06 in 10.0 mi NE 8.1 mph - N/A   Clear
12:55 PM 85.1 °F 95.4 °F 76.6 °F 76% 30.06 in 10.0 mi ENE 10.4 mph - N/A   Clear
1:55 PM 83.5 °F 92.2 °F 76.3 °F 79% 30.04 in 10.0 mi East 13.8 mph - N/A   Clear
2:55 PM 81.1 °F 86.0 °F 73.0 °F 76% 30.03 in 10.0 mi SE 11.5 mph - N/A   Clear
3:55 PM 81.9 °F 86.6 °F 72.1 °F 72% 30.01 in 10.0 mi SE 8.1 mph - N/A   Clear
4:55 PM 81.5 °F 85.7 °F 71.4 °F 71% 30.00 in 10.0 mi ESE 4.6 mph - N/A   Clear
5:55 PM 82.4 °F 89.8 °F 75.6 °F 80% 30.02 in 10.0 mi ESE 10.4 mph - N/A   Clear
6:55 PM 80.8 °F 86.7 °F 75.6 °F 84% 30.04 in 10.0 mi East 5.8 mph - N/A   Clear
7:55 PM 80.4 °F 85.6 °F 74.7 °F 83% 30.04 in 10.0 mi Calm Calm - N/A   Partly Cloudy
8:55 PM 80.2 °F 84.7 °F 73.4 °F 80% 30.04 in 10.0 mi South 3.5 mph - N/A   Clear
9:55 PM 78.4 °F - 75.0 °F 89% 30.04 in 10.0 mi NE 3.5 mph - N/A   Clear
10:55 PM 78.1 °F - 75.0 °F 90% 30.03 in 10.0 mi NNE 4.6 mph - N/A   Clear
11:55 PM 78.1 °F - 75.9 °F 93% 30.04 in 10.0 mi ENE 5.8 mph - N/A   Clear